Location: Namasale
(1.5000°N, 32.6167°E)
Time: 22:22:00
(UTC+00:00)

Transit 2A - Pass Details

Date: 22 April 2021
Orbit: 602 x 957 km, 66.7° (Epoch: 11 May)

Event Time Altitude Azimuth Distance (km) Brightness Sun altitude
Rises 13:54:54 0° 3° (N) 3,038 9.2 27.9°
Reaches altitude 10° 13:57:29 10° 16° (NNE) 2,181 8.4 27.3°
Maximum altitude 14:01:34 25° 72° (ENE) 1,478 7.2 26.3°
Drops below altitude 10° 14:05:59 10° 126° (SE) 2,383 8.1 25.2°
Sets 14:08:55 0° 139° (SE) 3,384 8.9 24.5°
